Regional Weather Roundup
Issued by NWS

Home | Current Version | Previous Version | Text Only | Print | Product List | Glossary On
Versions: 1 2 3 4 5 6 7 8 9 10 11 12 13 14 15 16 17 18 19 20 21 22 23 24 25 26 27 28 29 30 31 32 33 34 35 36 37 38 39 40 41 42 43 44 45 46 47 48 49 50
000
ASUS42 KKEY 301010
RWRKEY

FLORIDA REGIONAL WEATHER ROUNDUP FOR THE FLORIDA KEYS
NATIONAL WEATHER SERVICE KEY WEST FLORIDA
600 AM EDT MON MAR 30 2015

...SOUTH FLORIDA AND THE KEYS...

CITY           SKY/WX    TMP DP  RH WIND       PRES   REMARKS
FORT MYERS     CLEAR     51  44  77 NE5       30.24S
SW REGIONAL AP CLEAR     51  43  74 NE7       30.24F
NAPLES         CLEAR     53  49  86 NE7       30.23S
MIAMI          PTCLDY    62  50  64 CALM      30.22S
WEST KENDALL   CLEAR     57  52  83 N5        30.22S
HOMESTEAD      CLEAR     59  51  75 NW3       30.21S
MARATHON       CLEAR     66  58  75 NE14G21   30.19S
BOCA CHICA NAS CLEAR     66  58  75 NE9       30.20S
KEY WEST INTL  CLEAR     67  59  75 NE7       30.20S

...INTERNATIONAL WEATHER...

CITY           SKY/WX    TMP DP  RH WIND       PRES   REMARKS
NASSAU BAHAMAS   N/A     66  54  63 VRB1      30.20R
CANCUN MEXICO  MOCLDY    75  68  78 E12       30.10R
COZUMEL MEXICO PTCLDY    72  64  78 E6        30.09S

ADJACENT COASTAL WATERS...

STATION/POSITION TIME  SKY/WX   TEMP    WIND        PRES    WAVE
                                AIR SEA DIR/SP/G            HT/PER
                 (UTC)          (F)     (DEG/KT/KT) (MB)    (FT/S)
PULASKI SHOAL LI 0900            70      80/ 15/ 17 1022.4S
SAND KEY         0950            69      50/ 17/ 19 1022.2F
SOMBRERO KEY     1000            67      40/ 17/ 19 1022.7S
LONG KEY         1000            65 72   30/ 16/ 18 1023.3S
MOLASSES REEF    1000            66 76   10/ 15/ 16 1022.2S
FOWEY ROCKS      NOT AVBL

$$



USA.gov is the U.S. government's official web portal to all federal, state and local government web resources and services.